Date String (YYYY-MM-DD hh:mm:ss) UTC,Instrument flags,absolute air pressure of the measurement (hPa),sample flow rate (lpm),inlet stack bypass flow (lpm),air temperature of the measurement (°C),ambient temperature measured by the external sensor (°C),aerosol sample conditioner tube jacket temperature (°C),OPC LED temperature (°C),internal box temperature (°C),relative humidity of the measurement (%),span deviation,mass concentration of particles derived from Lorenz-Mie calculation of OPC scattering (μg/m³),mass concentration of particles derived from Lorenz-Mie calculation of OPC scattering (μg/m³),mass concentration of particles derived from Lorenz-Mie calculation of OPC scattering (μg/m³)
DateTimeUTC,F1_M11,P_M11,Q1_M11,Q2_M11,T1_M11,T2_M11,T3_M11,T4_M11,T5_M11,U1_M11,ZSPAN_M11,X2_M11,X0_M11,X1_M11
2024-05-02 10:00:00,SystemResetWarning,0825.4,4.99,000.00,023.9,023.0,000.0,032.5,025.6,009.7,0000.0,0003.02,0007.25,0001.92
2024-05-02 10:01:00,SystemResetWarning,0825.4,5.01,000.00,023.9,023.0,000.0,032.5,025.6,009.5,0000.0,0003.01,0007.25,0001.92
2024-05-02 10:02:00,SystemResetWarning,0825.4,5.01,000.00,023.9,022.9,000.0,032.5,025.5,009.4,0000.0,0003.04,0007.32,0001.92
2024-05-02 10:03:00,SystemResetWarning,0825.6,5.01,000.00,023.8,022.9,000.0,032.4,025.5,009.5,0000.0,0003.01,0007.14,0001.91
2024-05-02 10:04:00,SystemResetWarning,0825.6,4.99,000.00,023.8,022.9,000.0,032.4,025.5,009.4,0000.0,0003.03,0007.25,0001.91
2024-05-02 10:05:00,SystemResetWarning,0825.5,4.99,000.00,023.8,022.9,000.0,032.4,025.5,009.5,0000.0,0002.98,0008.35,0001.89
2024-05-02 10:06:00,SystemResetWarning,0825.6,5.00,000.00,023.8,022.8,000.0,032.3,025.4,009.3,0000.0,0002.99,0008.39,0001.90
2024-05-02 10:07:00,SystemResetWarning,0825.6,5.00,000.00,023.7,022.8,000.0,032.3,025.4,009.4,0000.0,0003.04,0008.47,0001.90
2024-05-02 10:08:00,SystemResetWarning,0825.6,5.01,000.00,023.7,022.7,000.0,032.3,025.4,009.3,0000.0,0003.10,0008.14,0001.91
2024-05-02 10:09:00,SystemResetWarning,0825.7,5.00,000.00,023.7,022.7,000.0,032.3,025.3,009.4,0000.0,0003.10,0008.07,0001.91
2024-05-02 10:10:00,SystemResetWarning,0825.7,5.00,000.00,023.7,022.7,000.0,032.3,025.3,009.4,0000.0,0003.10,0008.04,0001.91
2024-05-02 10:11:00,SystemResetWarning,0825.7,4.99,000.00,023.6,022.6,000.0,032.2,025.2,009.4,0000.0,0003.07,0007.91,0001.91
2024-05-02 10:12:00,SystemResetWarning,0825.7,4.99,000.00,023.6,022.6,000.0,032.2,025.2,009.4,0000.0,0003.08,0007.91,0001.92
2024-05-02 10:13:00,SystemResetWarning,0825.7,4.99,000.00,023.6,022.6,000.0,032.2,025.2,009.3,0000.0,0003.09,0008.10,0001.93
2024-05-02 10:14:00,SystemResetWarning,0825.7,5.01,000.00,023.5,022.6,000.0,032.1,025.2,009.3,0000.0,0003.09,0008.91,0001.93
2024-05-02 10:15:00,SystemResetWarning,0825.8,5.00,000.00,023.5,022.5,000.0,032.1,025.1,009.4,0000.0,0003.09,0009.00,0001.92
2024-05-02 10:16:00,SystemResetWarning,0825.7,5.00,000.00,023.5,022.5,000.0,032.1,025.1,009.3,0000.0,0003.09,0007.82,0001.91
2024-05-02 10:17:00,SystemResetWarning,0825.8,5.00,000.00,023.5,022.5,000.0,032.1,025.1,009.3,0000.0,0003.07,0007.80,0001.92
2024-05-02 10:18:00,SystemResetWarning,0825.8,5.00,000.00,023.4,022.5,000.0,032.0,025.1,009.2,0000.0,0003.08,0007.73,0001.92
2024-05-02 10:19:00,SystemResetWarning,0825.8,5.00,000.00,023.4,022.5,000.0,032.0,025.1,009.2,0000.0,0002.98,0007.61,0001.93
2024-05-02 10:20:00,SystemResetWarning,0825.8,5.00,000.00,023.4,022.5,000.0,032.0,025.0,009.3,0000.0,0003.01,0007.70,0001.93
2024-05-02 10:21:00,SystemResetWarning,0825.8,4.99,000.00,023.4,022.4,000.0,031.9,025.0,009.4,0000.0,0003.09,0008.94,0001.93
2024-05-02 10:22:00,SystemResetWarning,0825.8,5.00,000.00,023.3,022.4,000.0,031.9,025.0,009.3,0000.0,0003.16,0010.05,0001.93
2024-05-02 10:23:00,SystemResetWarning,0825.7,5.00,000.00,023.3,022.4,000.0,031.9,025.0,009.3,0000.0,0003.16,0010.77,0001.92
2024-05-02 10:24:00,SystemResetWarning,0825.8,5.00,000.00,023.3,022.4,000.0,031.9,025.0,009.5,0000.0,0003.15,0011.43,0001.91
2024-05-02 10:25:00,SystemResetWarning,0825.8,5.00,000.00,023.3,022.4,000.0,031.8,025.0,009.5,0000.0,0003.16,0010.64,0001.89
2024-05-02 10:26:00,SystemResetWarning,0825.7,4.99,000.00,023.3,022.3,000.0,031.8,024.9,009.4,0000.0,0003.15,0010.38,0001.89
2024-05-02 10:27:00,SystemResetWarning,0825.7,5.00,000.00,023.3,022.3,000.0,031.8,024.9,009.4,0000.0,0003.15,0010.36,0001.88
2024-05-02 10:28:00,SystemResetWarning,0825.7,5.00,000.00,023.2,022.3,000.0,031.8,024.9,009.4,0000.0,0003.18,0010.39,0001.87
2024-05-02 10:29:00,SystemResetWarning,0825.8,5.00,000.00,023.2,022.3,000.0,031.8,024.9,009.4,0000.0,0003.17,0010.36,0001.86
2024-05-02 10:30:00,SystemResetWarning,0825.7,5.01,000.00,023.2,022.3,000.0,031.8,024.9,009.4,0000.0,0003.18,0010.42,0001.82
2024-05-02 10:31:00,SystemResetWarning,0825.8,5.00,000.00,023.2,022.2,000.0,031.7,024.9,009.4,0000.0,0003.17,0010.44,0001.80
2024-05-02 10:32:00,SystemResetWarning,0825.8,5.01,000.00,023.2,022.2,000.0,031.7,024.8,009.5,0000.0,0003.13,0009.23,0001.80
2024-05-02 10:33:00,SystemResetWarning,0825.8,5.00,000.00,023.1,022.2,000.0,031.7,024.8,009.6,0000.0,0003.12,0008.30,0001.80
2024-05-02 10:34:00,SystemResetWarning,0825.8,5.00,000.00,023.1,022.2,000.0,031.7,024.8,009.6,0000.0,0003.14,0007.47,0001.81
2024-05-02 10:35:00,SystemResetWarning,0825.8,5.00,000.00,023.1,022.2,000.0,031.6,024.8,009.6,0000.0,0003.18,0006.65,0001.83
2024-05-02 10:36:00,SystemResetWarning,0825.8,5.00,000.00,023.1,022.2,000.0,031.6,024.8,009.6,0000.0,0003.20,0006.75,0001.85
2024-05-02 10:37:00,SystemResetWarning,0825.8,5.00,000.00,023.1,022.2,000.0,031.6,024.7,009.5,0000.0,0003.22,0007.02,0001.87
2024-05-02 10:38:00,SystemResetWarning,0825.8,5.00,000.00,023.1,022.1,000.0,031.6,024.7,009.6,0000.0,0003.21,0007.00,0001.89
2024-05-02 10:39:00,SystemResetWarning,0825.8,5.00,000.00,023.0,022.1,000.0,031.6,024.7,009.6,0000.0,0003.20,0007.25,0001.91
2024-05-02 10:40:00,SystemResetWarning,0825.8,5.00,000.00,023.0,022.1,000.0,031.6,024.7,009.5,0000.0,0003.22,0007.32,0001.91
2024-05-02 10:41:00,SystemResetWarning,0825.8,5.00,000.00,023.0,022.1,000.0,031.6,024.7,009.6,0000.0,0003.22,0007.45,0001.93
2024-05-02 10:42:00,SystemResetWarning,0825.8,5.00,000.00,023.0,022.1,000.0,031.6,024.7,009.5,0000.0,0003.21,0007.74,0001.94
2024-05-02 10:43:00,SystemResetWarning,0825.8,5.00,000.00,023.0,022.0,000.0,031.5,024.7,009.4,0000.0,0003.18,0008.33,0001.93
2024-05-02 10:44:00,SystemResetWarning,0825.8,5.00,000.00,023.0,022.0,000.0,031.5,024.7,009.4,0000.0,0003.14,0008.60,0001.92
2024-05-02 10:45:00,SystemResetWarning,0825.9,5.00,000.00,022.9,022.0,000.0,031.5,024.7,009.4,0000.0,0003.13,0009.54,0001.91
2024-05-02 10:46:00,SystemResetWarning,0825.9,5.00,000.00,022.9,022.0,000.0,031.5,024.6,009.3,0000.0,0003.12,0009.55,0001.90
2024-05-02 10:47:00,SystemResetWarning,0825.9,5.01,000.00,022.9,022.0,000.0,031.5,024.6,009.4,0000.0,0003.10,0009.61,0001.90
2024-05-02 10:48:00,SystemResetWarning,0825.9,5.01,000.00,022.9,022.0,000.0,031.5,024.6,009.4,0000.0,0003.03,0009.41,0001.87
2024-05-02 10:49:00,SystemResetWarning,0825.9,5.01,000.00,022.9,021.9,000.0,031.5,024.6,009.3,0000.0,0002.95,0009.50,0001.85
2024-05-02 10:50:00,SystemResetWarning,0825.9,5.00,000.00,022.8,021.9,000.0,031.5,024.6,009.5,0000.0,0002.95,0009.52,0001.84
2024-05-02 10:51:00,SystemResetWarning,0825.9,5.00,000.00,022.8,021.9,000.0,031.4,024.5,009.6,0000.0,0002.92,0009.26,0001.84
2024-05-02 10:52:00,SystemResetWarning,0825.9,5.00,000.00,022.8,021.9,000.0,031.4,024.4,009.5,0000.0,0002.93,0009.18,0001.84
2024-05-02 10:53:00,SystemResetWarning,0825.9,5.00,000.00,022.8,021.9,000.0,031.4,024.5,009.5,0000.0,0002.93,0008.90,0001.83
2024-05-02 10:54:00,SystemResetWarning,0825.9,5.00,000.00,022.8,021.9,000.0,031.4,024.5,009.6,0000.0,0002.98,0008.71,0001.84
2024-05-02 10:55:00,SystemResetWarning,0825.9,4.99,000.00,022.8,021.8,000.0,031.4,024.5,009.6,0000.0,0003.01,0009.47,0001.85
2024-05-02 10:56:00,SystemResetWarning,0825.9,5.00,000.00,022.7,021.8,000.0,031.4,024.5,009.5,0000.0,0003.03,0009.08,0001.85
2024-05-02 10:57:00,SystemResetWarning,0825.9,5.00,000.00,022.7,021.8,000.0,031.4,024.5,009.6,0000.0,0002.98,0008.72,0001.84
2024-05-02 10:58:00,SystemResetWarning,0825.9,5.01,000.00,022.7,021.8,000.0,031.4,024.4,009.6,0000.0,0002.97,0008.69,0001.84
2024-05-02 10:59:00,SystemResetWarning,0825.9,5.01,000.00,022.7,021.8,000.0,031.3,024.4,009.6,0000.0,0003.06,0008.86,0001.85
